ソーホー彗星

323P/SOHO (1999)

English version
Home page
Updated on June 14, 2015

---------------------------------------------------------------------

・ プロフィール

符号 323P/1999 X3

・ 軌道要素

Epoch 1999 Dec. 8.0 TT = JDT 2451520.5
T 1999 Dec. 12.87923 TT                                 MPCW
q   0.0521168            (2000.0)            P               Q
n   0.23172330     Peri.  352.71358     +0.73295942     +0.67756510
a   2.6251629      Node   324.38769     -0.61876711     +0.62700415
e   0.9801472      Incl.    5.97661     -0.28266191     +0.38441037
P   4.25
From 47 observations 1999 Dec. 12-2012 Aug. 20.

・ 光度変化

        m1 = 20 + 5 logΔ + 10 log r

---------------------------------------------------------------------

軌道要素はM.P.E.C. 2015-K01に掲載されたものです。
光度グラフはComet for Windowsで作成したものです。

---------------------------------------------------------------------

Copyright(C) Seiichi Yoshida (comet@aerith.net). All rights reserved.